Regional Weather Roundup
Issued by NWS

Home | Current Version | Previous Version | Graphics & Text | Print | Product List | Glossary On
Versions: 1 2 3 4 5 6 7 8 9 10 11 12 13 14 15 16 17 18 19 20 21 22 23 24 25 26 27 28 29 30 31 32 33 34 35 36 37 38 39 40 41 42 43 44 45 46 47 48 49 50
000
ASUS43 KDMX 171701
RWRIA

WEATHER ROUNDUP FOR IOWA
NATIONAL WEATHER SERVICE DES MOINES IA
1100 AM CST WED JAN 17 2018

NOTE: "FAIR" INDICATES FEW OR NO CLOUDS BELOW 12,000 FEET WITH NO
SIGNIFICANT WEATHER AND/OR OBSTRUCTIONS TO VISIBILITY.

* - THESE STATIONS ARE NOT NWS STATIONS...THUS NOT UNDER NWS
QUALITY CONTROL.  THEY ALSO DO NOT REPORT WEATHER SUCH
AS PRECIPITATION OR FOG.

IAZ001>003-012>014-020>022-031>034-043>046-171800-
   NORTHWEST IOWA

CITY           SKY/WX    TMP DP  RH WIND       PRES   REMARKS
CARROLL *      CLOUDY    16   7  67 SW26      30.44F WCI  -3
CHEROKEE *     CLOUDY    19   7  59 SW14G20   30.40S WCI   6
DENISON *      CLOUDY    18   7  62 SW15G23   30.46F WCI   3
LE MARS *      CLOUDY    18   7  62 S16       30.39S WCI   3
ORANGE CITY *  CLOUDY    16   9  73 SW15      30.36S WCI   1
SHELDON *      CLOUDY    16   7  67 SW16      30.33S WCI   0
SIOUX CITY     CLOUDY    20   8  60 SW12      30.43F WCI   8
SPENCER        CLOUDY    18   5  57 SW22G28   30.35F WCI   1
STORM LAKE *   CLOUDY    18   7  62 SW25      30.37F WCI  -1
$$

IAZ055>058-069>071-079>083-090>094-171800-
   SOUTHWEST IOWA

CITY           SKY/WX    TMP DP  RH WIND       PRES   REMARKS
ATLANTIC *     CLOUDY    14   7  73 SW16      30.52F WCI  -2
AUDUBON *      CLOUDY    16   7  67 SW12G17   30.48S WCI   3
CLARINDA *     CLOUDY    12   9  85 S9        30.61  WCI   0
COUNCIL BLFS * CLOUDY    12   7  79 SW14G20   30.50F WCI  -3
CRESTON *      CLOUDY    14   7  73 SW17G24   30.55R WCI  -3
HARLAN  *      CLOUDY    12   7  79 S16       30.53S WCI  -4
LAMONI         CLOUDY    15   6  67 SW18      30.57F WCI  -2
RED OAK *      CLOUDY    16   9  73 SW13      30.56F WCI   2
SHENANDOAH *   CLOUDY    16   7  67 SW14      30.59S WCI   1
$$

IAZ047>049-059>061-072>074-084-171800-
   CENTRAL IOWA

CITY           SKY/WX    TMP DP  RH WIND       PRES   REMARKS
AMES           CLOUDY    14   6  70 SW20      30.49F WCI  -3
ANKENY *       CLOUDY    18   5  57 SW13      30.53F WCI   4
BOONE *        CLOUDY    14   5  67 SW15      30.46F WCI  -1
CHARITON *     CLOUDY    14   5  67 SW12G18   30.57R WCI   0
DES MOINES     CLOUDY    16   6  65 SW12      30.53F WCI   3
GRINNELL*      CLOUDY    10   4  78 SW13      30.53F WCI  -6
KNOXVILLE *    CLOUDY    14   3  62 SW13G18   30.54F WCI   0
MARSHALLTOWN   CLOUDY    14   5  67 SW17      30.48F WCI  -3
NEWTON *       CLOUDY    12   5  73 SW14      30.52F WCI  -3
PELLA *        CLOUDY    15   5  65 SW12      30.56F WCI   2
PERRY *          N/A     18   7  63 SW15      30.50F WCI   3
$$

IAZ004>006-015-016-023>025-035-036-171800-
   NORTH CENTRAL IOWA

CITY           SKY/WX    TMP DP  RH WIND       PRES   REMARKS
ALGONA *       CLOUDY    16  12  86 SW17G25   30.36F WCI   0
CLARION *      CLOUDY    14   7  73 SW20G28   30.41F WCI  -3
ESTHERVILLE    CLOUDY    16   6  65 SW21      30.32F WCI  -1
FORT DODGE *   CLOUDY    17   7  64 SW17G25   30.43F WCI   1
MASON CITY     CLOUDY    15   3  59 SW18      30.39F WCI  -2
FOREST CITY *    N/A     18   9  68 SW17G23   30.37F WCI   2
WEBSTER CITY * CLOUDY    16   5  62 SW21G28   30.42F WCI  -2
IOWA FALLS *     N/A     14   6  70 SW16G24   30.45F WCI  -2
$$

IAZ007>011-017>019-026>030-037>042-050>054-066-171800-
   NORTHEAST IOWA

CITY           SKY/WX    TMP DP  RH WIND       PRES   REMARKS
CEDAR RAPIDS     N/A     12   4  70 SW10      30.52F WCI  -1
CHARLES CITY *   N/A     14   5  67 SW15      30.41F WCI  -1
CLINTON *        N/A     11   5  77 W12       30.56F WCI  -3
DECORAH *        N/A     16   3  57 W10G18    30.39F WCI   3
DUBUQUE          N/A     11   4  73 SW15      30.47F WCI  -5
MONTICELLO *     N/A     14   5  67 SW8G15    30.51F WCI   3
OELWEIN *        N/A     12   7  79 SW12G20   30.46F WCI  -2
WATERLOO         N/A     14   3  61 SW18G28   30.47F WCI  -3
$$

IAZ064-065-067-068-078-171800-
   EAST CENTRAL IOWA

CITY           SKY/WX    TMP DP  RH WIND       PRES   REMARKS
DAVENPORT        N/A     12   5  73 SW12      30.58F WCI  -2
IOWA CITY        N/A     12   3  67 SW10      30.58F WCI  -1
MT. PLEASANT * CLOUDY    14   5  67 SW12      30.60F WCI   0
MUSCATINE *      N/A     10   3  72 SW9       30.60F WCI  -2
QUAD CITIES      N/A     14   5  67 SW12      30.58F WCI   0
$$

IAZ062-063-075>077-085>089-095>099-171800-
   SOUTHEAST IOWA

CITY           SKY/WX    TMP DP  RH WIND       PRES   REMARKS
BURLINGTON     CLOUDY    12   4  70 W9        30.61S WCI   0
FAIRFIELD *    CLOUDY    12   5  73 SW12      30.58F WCI  -2
FORT MADISON * CLOUDY    12   5  73 SW6       30.62S WCI   3
KEOKUK *       CLOUDY    10   3  72 SW9       30.63S WCI  -2
OSKALOOSA *      N/A     15   8  75 W15       30.57F WCI  -1
OTTUMWA        CLOUDY    16   7  67 SW14      30.57F WCI   2
WASHINGTON *   CLOUDY    12   7  79 SW10G16   30.59F WCI  -1
$$

ABBREVIATIONS USED IN REMARKS
   TC - TEMPERATURES IN CELSIUS
  WCI - WIND CHILL INDEX
   HX - HEAT INDEX
  VSB - VISIBILITY
$$




USA.gov is the U.S. government's official web portal to all federal, state and local government web resources and services.